Location: ?????????
(53.2086°N, 54.0693°E)
Time: 04:46:35
(UTC+00:00)

COSMO-SKYMED 1 - Pass Details

Date: 08 December 2019
Orbit: 621 x 623 km, 97.9° (Epoch: 21 January)

Event Time Altitude Azimuth Distance (km) Brightness Sun altitude
Exits shadow 15:15:45 53° 313° (NW) 770 3.1 -26.9°
Maximum altitude 15:16:08 56° 290° (WNW) 750 3.1 -27.0°
Drops below altitude 10° 15:20:22 10° 213° (SSW) 1,992 5.5 -27.6°
Sets 15:22:35 0° 209° (SSW) 2,894 6.4 -27.9°
